AirNav   Advertisement
 
 1252 users online  

4TN5 Tommy's Field Airport
Greenville, Tennessee, USA


FAA INFORMATION EFFECTIVE 14 SEPTEMBER 2017

Location

FAA Identifier: 4TN5
Lat/Long: 36-09-03.0000N / 082-37-57.0000W
36-09.050000N / 082-37.950000W
36.1508333 / -82.6325000
(estimated)
Elevation: 1561 ft. / 476 m (estimated)
Variation: 07W ()
From city: 9 miles E of GREENVILLE, TN
Time zone: UTC -4 (UTC -5 during Standard Time)
Zip code: 37641

Airport Operations

Airport use: Private use. Permission required prior to landing
Activation date: 01/2016
Control tower: no
ARTCC: ATLANTA CENTER
FSS: NASHVILLE FLIGHT SERVICE STATION
Attendance: 
Segmented circle: no

Airport Communications

WX AWOS-3 at GCY (9 nm W): 128.425 (423-639-5081)

Nearby radio navigation aids

VOR radial/distance  VOR name  Freq  Var
SOTr047/29.7SNOWBIRD VORTAC108.8004W
HMVr239/29.8HOLSTON MOUNTAIN VORTAC114.6004W

 
NDB name  Hdg/Dist  Freq  Var  ID
DULANEY093/12.526307WDYQ -.. -.-- --.-
ROGERSVILLE153/22.032907WRVN .-. ...- -.
HEMLOCK272/36.532002WBAR -... .- .-.

Airport Services

Runway Information

Runway 9/27

Dimensions: 500 x 70 ft. / 152 x 21 m
Surface: turf
RUNWAY 9  RUNWAY 27
Traffic pattern: leftleft

Airport Ownership and Management from official FAA records

Ownership: Privately-owned
Owner: TOMMY HENSLEY
156 ANDREW JENNINGS RD
CHUCKY, TN 37641
Phone 423 278 6068

Airport Operational Statistics

Aircraft based on the field: 1
Single engine airplanes: 1
    

Instrument Procedures

There are no published instrument procedures at 4TN5.

Some nearby airports with instrument procedures:

KGCY - Greeneville-Greene County Municipal Airport (9 nm W)
KRVN - Hawkins County Airport (22 nm NW)
KTRI - Tri-Cities Airport (22 nm NE)
0A9 - Elizabethton Municipal Airport (26 nm NE)
KMOR - Moore-Murrell Airport (36 nm W)
 
Loc | Ops | Rwys | IFR | FBO | Links
Com | Nav | Svcs | Stats | Notes


 
Aerial photo
No photo
 
Airport distance calculator
Flying to Tommy's Field Airport? Find the distance to fly.

From to 4TN5

Sunrise and sunset
Times for 26-Sep-2017
 Local
(UTC-4)
 Zulu
(UTC)
Morning civil twilight06:5710:57
Sunrise07:2311:23
Sunset19:2123:21
Evening civil twilight19:4723:47

Current date and time
Zulu (UTC)  26-Sep-2017 13:17:02
Local (UTC-4)  26-Sep-2017 09:17:02
 
METAR
KTRI 
23nm NE 
261253Z 00000KT 9SM FEW150 18/17 A3007 RMK AO2 SLP161 T01780172
K0A9 
26nm NE 
261255Z AUTO 00000KT 10SM CLR 19/16 A3008 RMK AO2 PWINO
7A8 
33nm E 
SuperAWOS
261255Z AUTO 00000KT 10SM A3017
KMOR 
36nm W 
261255Z AUTO 00000KT FEW013 19/16 A3005 RMK A01
K0VG 
41nm NW 
261255Z AUTO 00000KT 10SM CLR 17/15 A3010 RMK AO2
KVJI 
43nm NE 
261255Z AUTO 11006KT 10SM CLR 19/18 A3009 RMK AO2 T01910176
KAVL 
43nm S 
261254Z 36005KT 10SM CLR 19/15 A3009 RMK AO2 SLP168 T01890150
TAF
KTRI 
23nm NE 
260520Z 2606/2706 00000KT P6SM FEW250 FM261600 01005KT P6SM SCT050 FM270100 00000KT P6SM SKC
NOTAMs
Click for the latest NOTAMs
NOTAMs are issued by the DoD/FAA and will open in a separate window not controlled by AirNav.

 

 
 

Would you like to see your business listed on this page?

 If your business provides an interesting product or service to pilots, flight crews, aircraft, or users of the Tommy's Field Airport, you should consider listing it here.  To start the listing process, click on the button below
 
Add a business
 

Other Pages about Tommy's Field Airport

Update a link
 
Copyright © AirNav, LLC. All rights reserved. Privacy Policy  Contact